This demonstration page uses our WeatherBlox Daily Observations layout. Learn more.

Left ArrowRight Arrow

Hourly Observations for June 26, 2021

Temp ( °F °C ) Dew Point ( °F °C ) Humidity (%) Winds ( mph kmh ) Pressure ( in mb ) Visibility ( mi km ) Precip ( " mm )
12:53 am 00:53 Clear 80 26.7 60 15.6 51 51 Calm 29.87 1011 10 16 0.00 0.00
1:53 am 01:53 Clear 78 25.6 61 16.1 56 56 WNW 6 9 29.87 1012 10 16 0.00 0.00
2:53 am 02:53 Clear 76 24.4 60 15.6 58 58 NE 3 6 29.88 1012 10 16 0.00 0.00
3:53 am 03:53 Clear 73 22.8 59 15 62 62 W 3 6 29.88 1012 10 16 0.00 0.00
4:53 am 04:53 Clear 75 23.9 60 15.6 60 60 N 5 7 29.87 1012 10 16 0.00 0.00
5:53 am 05:53 Sunny 71 21.7 59 15 66 66 Calm 29.88 1012 10 16 0.00 0.00
6:53 am 06:53 Sunny 75 23.9 59 15 58 58 NNE 3 6 29.88 1012 10 16 0.00 0.00
7:53 am 07:53 Sunny 80 26.7 60 15.6 51 51 Calm 29.88 1012 10 16 0.00 0.00
8:53 am 08:53 Sunny 83 28.3 58 14.4 43 43 Calm 29.88 1012 10 16 0.00 0.00
9:53 am 09:53 Sunny 89 31.7 56 13.3 33 33 W 3 6 29.86 1011 10 16 0.00 0.00
10:53 am 10:53 Sunny 95 35 52 11.1 23 23 NNE 5 7 29.83 1010 10 16 0.00 0.00
11:53 am 11:53 Sunny 102 38.9 51 10.6 18 18 NE 6 9 29.81 1010 10 16 0.00 0.00
12:53 pm 12:53 Sunny 106 41.1 47 8.3 14 14 VRB 3 6 29.79 1009 10 16 0.00 0.00
2:53 pm 14:53 Sunny 112 44.4 37 2.8 8 8 VRB 7 11 29.74 1007 10 16 0.00 0.00
3:53 pm 15:53 Sunny 112 44.4 39 3.9 8 8 N 5 7 29.72 1006 10 16 0.00 0.00
4:53 pm 16:53 Sunny 112 44.4 42 5.6 9 9 NNW 8 13 29.70 1006 10 16 0.00 0.00
5:53 pm 17:53 Sunny 112 44.4 42 5.6 9 9 N 8 13 29.68 1005 10 16 0.00 0.00
6:53 pm 18:53 Sunny 111 43.9 41 5 9 9 NNW 6 9 29.67 1005 10 16 0.00 0.00
7:53 pm 19:53 Sunny 110 43.3 41 5 10 10 NW 3 6 29.66 1005 10 16 0.00 0.00
8:53 pm 20:53 Clear 99 37.2 48 8.9 18 18 WNW 3 6 29.66 1004 10 16 0.00 0.00
9:53 pm 21:53 Clear 93 33.9 51 10.6 24 24 NNW 3 6 29.68 1005 10 16 0.00 0.00
10:53 pm 22:53 Clear 93 33.9 57 13.9 30 30 SSW 6 9 29.69 1005 10 16 0.00 0.00
11:53 pm 23:53 Clear 89 31.7 63 17.2 42 42 ESE 6 9 29.69 1006 10 16 0.00 0.00

Powered by AerisWeather